Flag for Vietnam

Past Weather in Hanoi, Vietnam — Yesterday and Last 2 Weeks

Currently: 64 °F. Partly sunny. (Weather station: Ha Noi Airport, Vietnam). See more current weather

Past Weather in Hanoi — Graph

°F

Hanoi Temperature Yesterday

Maximum temperature yesterday: 73 °F (at 11:30 am)
Minimum temperature yesterday: 64 °F (at 12:30 am)
Average temperature yesterday: 69 °F

High & Low Weather Summary for the Past Weeks

 TemperatureHumidityPressure
High77 °F (Jan 26, 1:00 pm)94% (Jan 15, 6:00 am)30.39 "Hg (Jan 15, 6:00 am)
Low50 °F (Jan 14, 7:00 am)23% (Jan 13, 1:30 pm)29.83 "Hg (Jan 24, 3:00 pm)
Average64 °F69%30.04 "Hg
* Reported Jan 13 11:00 am — Jan 28 11:30 am, Hanoi. Weather by CustomWeather, © 2021

Note: Actual official high and low records may vary slightly from our data, if they occured in-between our weather recording intervals... More about our weather records

Hanoi Weather History for the Previous 24 Hours

Scroll right to see more
 ConditionsComfort  
Time TempWeatherWind HumidityBarometerVisibility
11:30 am
Thu, Jan 28
64 °FPartly sunny.13 mph73%30.21 "HgN/A
11:00 am64 °FPartly sunny.13 mph78%30.24 "HgN/A
10:30 am64 °FBroken clouds.13 mph88%30.24 "HgN/A
10:00 am63 °FLight rain. Fog.14 mph94%30.24 "Hg2 mi
9:30 am64 °FLight rain. Fog.13 mph94%30.21 "Hg2 mi
9:00 am64 °FLight rain. Fog.8 mph94%30.21 "Hg1 mi
8:30 am66 °FLight rain. Fog.8 mph83%30.18 "Hg2 mi
8:00 am68 °FPartly sunny.7 mph78%30.18 "Hg4 mi
7:30 am66 °FPartly sunny.7 mph78%30.15 "Hg4 mi
7:00 am66 °FPartly sunny.6 mph78%30.15 "Hg5 mi
6:30 am66 °FPassing clouds.5 mph78%30.12 "Hg6 mi
6:00 am66 °FPassing clouds.6 mph78%30.12 "Hg6 mi
5:30 am66 °FPassing clouds.6 mph78%30.09 "Hg5 mi
5:00 am66 °FPartly cloudy.3 mph78%30.09 "Hg5 mi
4:30 am66 °FPartly cloudy.3 mph78%30.09 "Hg4 mi
4:00 am66 °FPassing clouds.6 mph78%30.09 "Hg4 mi
3:30 am66 °FPassing clouds.5 mph78%30.09 "Hg4 mi
3:00 am66 °FPartly cloudy.6 mph78%30.07 "Hg5 mi
2:00 am68 °FPassing clouds.6 mph73%30.07 "Hg5 mi
1:30 am68 °FPassing clouds.5 mph73%30.07 "Hg6 mi
1:00 am68 °FPartly cloudy.6 mph73%30.07 "Hg4 mi
12:30 am68 °FPartly cloudy.5 mph78%30.07 "Hg4 mi
12:00 am68 °FPassing clouds.7 mph73%30.07 "Hg4 mi
11:30 pm
Wed, Jan 27
68 °FPassing clouds.7 mph73%30.07 "Hg5 mi
11:00 pm68 °FOvercast.9 mph73%30.07 "HgN/A
10:30 pm68 °FOvercast.8 mph73%30.04 "HgN/A
9:30 pm70 °FOvercast.9 mph69%30.04 "HgN/A
9:00 pm70 °FPassing clouds.7 mph69%30.04 "HgN/A
8:30 pm70 °FPartly cloudy.9 mph69%30.01 "Hg6 mi
8:00 pm70 °FPassing clouds.10 mph69%30.01 "Hg6 mi
7:30 pm72 °FPartly cloudy.9 mph65%29.98 "Hg6 mi
7:00 pm72 °FPassing clouds.10 mph65%29.98 "Hg6 mi
6:30 pm72 °FPassing clouds.9 mph65%29.95 "Hg5 mi
6:00 pm72 °FPassing clouds.8 mph65%29.95 "Hg4 mi
5:30 pm72 °FPartly sunny.7 mph69%29.95 "Hg3 mi
5:00 pm73 °FPartly sunny.8 mph65%29.95 "Hg3 mi
4:30 pm73 °FPartly sunny.8 mph65%29.95 "Hg4 mi
4:00 pm73 °FPartly sunny.9 mph65%29.92 "Hg4 mi
3:30 pm73 °FPartly sunny.6 mph61%29.92 "HgN/A
3:00 pm73 °FPartly sunny.6 mph61%29.92 "HgN/A
2:30 pm73 °FPartly sunny.6 mph61%29.95 "HgN/A
2:00 pm73 °FBroken clouds.8 mph61%29.95 "HgN/A
1:30 pm73 °FBroken clouds.9 mph61%29.98 "HgN/A
1:00 pm73 °FPartly sunny.9 mph65%29.98 "HgN/A
12:30 pm73 °FPartly sunny.7 mph65%30.01 "HgN/A
12:00 pm73 °FBroken clouds.9 mph61%30.01 "HgN/A
Weather by CustomWeather, © 2021

See weather overview